Harlan, KY

9:18 AM EST on November 14, 2019 (GMT -0500)
Harlan

Weather History for KI35 - September, 2019

Change the Weather History Date:

Friday, September 27, 2019

  Actual Average (KLOZ) Record (KLOZ)
Temperature  
Mean Temperature 74 °F -  
Max Temperature 86 °F 72 °F 91 °F (2019)
Min Temperature 62 °F 52 °F 35 °F (1991)
Cooling Degree Days 9    
Growing Degree Days 24 (Base 50)    
Moisture  
Dew Point 65 °F    
Average Humidity 81    
Maximum Humidity 100    
Minimum Humidity 44    
Precipitation  
Precipitation 0.00 in - - ()
Sea Level Pressure  
Sea Level Pressure 30.05 in    
Wind  
Wind Speed 1 mph ()    
Max Wind Speed 7 mph    
Max Gust Speed -    
Visibility 6.5 miles    
Events      
Averages and records for this station are not official NWS values.
T = Trace of Precipitation, MM = Missing Value Source: Averaged Metar Reports

Daily Weather History Graph

Daily Weather History Graph

Search for Another Location

Airport or City:

Astronomy

Sep. 27, 2019 Rise Set
Actual Time 7:25 AM EDT 7:23 PM EDT
Civil Twilight 6:59 AM EDT 7:48 PM EDT
Nautical Twilight 6:29 AM EDT 8:18 PM EDT
Astronomical Twilight 5:58 AM EDT 8:49 PM EDT
Moon 5:49 AM EDT (9/27) 7:09 PM EDT (9/27)
Length of Visible Light 12h 49m
Length of Day
11h 57m
Waning Crescent, 2% of the Moon is Illuminated
Sep 27
Waning Crescent
Sep 28
New
Oct 5
First Quarter
Oct 13
Full
Oct 21
Last Quarter

Hourly Weather History & Observations

Time (EDT) Temp. Heat Index Dew Point Humidity Pressure Visibility Wind Dir Wind Speed Gust Speed Precip Events Conditions
12:15 AM 65.8 °F - 65.7 °F 99% 30.03 in 1.2 mi Calm Calm - N/A   Overcast
12:35 AM 65.3 °F - 65.3 °F 100% 30.03 in 1.5 mi Calm Calm - N/A   Overcast
12:55 AM 65.3 °F - 65.1 °F 99% 30.03 in 0.8 mi Calm Calm - N/A   Overcast
1:15 AM 65.3 °F - 65.3 °F 100% 30.03 in 0.8 mi Calm Calm - N/A   Overcast
1:35 AM 64.4 °F - 64.2 °F 99% 30.03 in 1.8 mi Calm Calm - N/A   Overcast
1:55 AM 64.2 °F - 63.9 °F 99% 30.04 in 5.0 mi Calm Calm - N/A   Overcast
2:15 AM 63.9 °F - 63.5 °F 99% 30.03 in 5.0 mi Calm Calm - N/A   Overcast
2:35 AM 64.4 °F - 64.0 °F 99% 30.03 in 4.0 mi Calm Calm - N/A   Unknown
2:55 AM 64.4 °F - 64.2 °F 99% 30.03 in 3.0 mi Calm Calm - N/A   Unknown
3:15 AM 63.9 °F - 63.5 °F 99% 30.03 in 5.0 mi Calm Calm - N/A   Overcast
3:35 AM 63.9 °F - 63.7 °F 99% 30.03 in 4.0 mi Calm Calm - N/A   Overcast
3:55 AM 64.0 °F - 63.9 °F 99% 30.03 in 4.0 mi ENE 3.5 mph - N/A   Overcast
4:15 AM 63.9 °F - 63.5 °F 99% 30.03 in 5.0 mi NE 3.5 mph - N/A   Overcast
4:35 AM 63.9 °F - 63.1 °F 97% 30.03 in 7.0 mi Calm Calm - N/A   Overcast
4:55 AM 63.9 °F - 63.5 °F 99% 30.04 in 7.0 mi Calm Calm - N/A   Overcast
5:15 AM 63.9 °F - 63.3 °F 98% 30.04 in 5.0 mi Calm Calm - N/A   Overcast
5:35 AM 63.7 °F - 63.3 °F 99% 30.04 in 5.0 mi Calm Calm - N/A   Overcast
5:55 AM 63.5 °F - 62.8 °F 97% 30.04 in 5.0 mi Calm Calm - N/A   Overcast
6:15 AM 63.3 °F - 63.0 °F 99% 30.05 in 3.0 mi Calm Calm - N/A   Overcast
6:35 AM 62.8 °F - 62.6 °F 99% 30.05 in 3.0 mi Calm Calm - N/A   Overcast
6:55 AM 62.8 °F - 62.6 °F 99% 30.06 in 2.0 mi Calm Calm - N/A   Overcast
7:15 AM 62.8 °F - 62.6 °F 99% 30.06 in 2.0 mi Calm Calm - N/A   Overcast
7:35 AM 62.6 °F - 62.6 °F 100% 30.06 in 3.0 mi Calm Calm - N/A   Overcast
7:55 AM 62.6 °F - 62.6 °F 100% 30.07 in 2.0 mi Calm Calm - N/A   Overcast
8:15 AM 62.6 °F - 62.6 °F 100% 30.08 in 2.0 mi Calm Calm - N/A   Overcast
8:35 AM 63.0 °F - 62.6 °F 99% 30.08 in 3.0 mi Calm Calm - N/A   Overcast
8:55 AM 63.1 °F - 62.6 °F 98% 30.09 in 4.0 mi ENE 3.5 mph - N/A   Overcast
9:15 AM 63.7 °F - 63.0 °F 97% 30.09 in 5.0 mi ENE 3.5 mph - N/A   Overcast
9:35 AM 64.2 °F - 63.3 °F 97% 30.09 in 7.0 mi Calm Calm - N/A   Overcast
9:55 AM 64.9 °F - 63.5 °F 95% 30.09 in 10.0 mi ENE 3.5 mph - N/A   Overcast
10:15 AM 66.4 °F - 63.5 °F 90% 30.10 in 10.0 mi ENE 3.5 mph - N/A   Overcast
10:35 AM 68.4 °F - 64.9 °F 89% 30.10 in 10.0 mi NE 3.5 mph - N/A   Mostly Cloudy
10:55 AM 71.1 °F - 65.7 °F 83% 30.10 in 10.0 mi Calm Calm - N/A   Scattered Clouds
11:15 AM 71.1 °F - 64.8 °F 80% 30.09 in 7.0 mi South 3.5 mph - N/A   Clear
11:35 AM 74.5 °F - 66.0 °F 75% 30.09 in 10.0 mi SE 3.5 mph - N/A   Clear
11:55 AM 77.9 °F - 67.6 °F 71% 30.09 in 10.0 mi ESE 3.5 mph - N/A   Scattered Clouds
12:15 PM 77.9 °F - 66.2 °F 67% 30.08 in 10.0 mi SSE 3.5 mph - N/A   Scattered Clouds
12:35 PM 78.6 °F - 66.4 °F 66% 30.07 in 10.0 mi Calm Calm - N/A   Scattered Clouds
12:55 PM 80.1 °F 82.2 °F 66.6 °F 63% 30.06 in 10.0 mi SSE 3.5 mph - N/A   Scattered Clouds
1:15 PM 80.8 °F 82.8 °F 65.8 °F 60% 30.06 in 10.0 mi Calm Calm - N/A   Scattered Clouds
1:35 PM 82.4 °F 84.4 °F 66.0 °F 57% 30.05 in 10.0 mi SE 3.5 mph - N/A   Clear
1:55 PM 84.2 °F 86.3 °F 65.8 °F 54% 30.04 in 10.0 mi SSE 5.8 mph - N/A   Clear
2:15 PM 83.5 °F 85.3 °F 65.5 °F 54% 30.03 in 10.0 mi South 5.8 mph - N/A   Clear
2:35 PM 83.8 °F 86.0 °F 66.2 °F 55% 30.03 in 10.0 mi SE 3.5 mph - N/A   Scattered Clouds
2:55 PM 84.6 °F 86.6 °F 65.5 °F 53% 30.02 in 10.0 mi SE 3.5 mph - N/A   Clear
3:15 PM 85.1 °F 86.6 °F 64.6 °F 50% 30.01 in 10.0 mi South 4.6 mph - N/A   Clear
3:35 PM 86.0 °F 87.1 °F 63.3 °F 47% 30.01 in 10.0 mi SSW 3.5 mph - N/A   Clear
3:55 PM 86.2 °F 87.1 °F 63.3 °F 46% 30.01 in 10.0 mi SW 4.6 mph - N/A   Scattered Clouds
4:15 PM 85.6 °F 86.3 °F 62.4 °F 46% 30.01 in 10.0 mi Calm Calm - N/A   Scattered Clouds
4:35 PM 85.8 °F 86.6 °F 62.6 °F 46% 30.00 in 10.0 mi SW 4.6 mph - N/A   Clear
4:55 PM 85.3 °F 85.4 °F 61.3 °F 44% 30.00 in 10.0 mi WSW 5.8 mph - N/A   Clear
5:15 PM 85.5 °F 85.9 °F 61.9 °F 45% 30.00 in 10.0 mi West 6.9 mph - N/A   Clear
5:35 PM 85.6 °F 86.1 °F 62.2 °F 45% 30.00 in 10.0 mi West 4.6 mph - N/A   Clear
5:55 PM 85.1 °F 85.9 °F 63.0 °F 47% 30.01 in 10.0 mi WNW 3.5 mph - N/A   Scattered Clouds
6:15 PM 85.5 °F 86.3 °F 63.1 °F 47% 30.01 in 10.0 mi Calm Calm - N/A   Clear
6:35 PM 84.4 °F 85.4 °F 63.5 °F 49% 30.01 in 10.0 mi WSW 3.5 mph - N/A   Clear
6:55 PM 82.0 °F 83.3 °F 63.3 °F 53% 30.01 in 10.0 mi Calm Calm - N/A   Clear
7:15 PM 80.2 °F 81.8 °F 63.9 °F 57% 30.02 in 10.0 mi Calm Calm - N/A   Clear
7:35 PM 77.9 °F - 64.4 °F 63% 30.03 in 10.0 mi Calm Calm - N/A   Clear
7:55 PM 77.2 °F - 64.6 °F 65% 30.03 in 10.0 mi Calm Calm - N/A   Scattered Clouds
8:15 PM 74.8 °F - 65.5 °F 73% 30.03 in 10.0 mi Calm Calm - N/A   Scattered Clouds
8:35 PM 74.1 °F - 66.2 °F 76% 30.05 in 10.0 mi Calm Calm - N/A   Mostly Cloudy
8:55 PM 71.1 °F - 66.9 °F 87% 30.06 in 1.0 mi Calm Calm - N/A   Overcast
9:15 PM 68.9 °F - 67.6 °F 96% 30.07 in 5.0 mi Calm Calm - N/A   Mostly Cloudy
9:35 PM 69.1 °F - 67.3 °F 94% 30.07 in 10.0 mi ENE 4.6 mph - N/A   Clear
9:55 PM 68.7 °F - 67.8 °F 97% 30.07 in 7.0 mi Calm Calm - N/A   Clear
10:15 PM 68.0 °F - 67.5 °F 98% 30.06 in 7.0 mi Calm Calm - N/A   Scattered Clouds
10:35 PM 67.6 °F - 67.5 °F 99% 30.06 in 2.0 mi East 3.5 mph - N/A   Mostly Cloudy
10:55 PM 67.3 °F - 67.3 °F 100% 30.06 in 0.5 mi East 3.5 mph - N/A   Overcast
11:15 PM 67.1 °F - 67.1 °F 100% 30.06 in 1.2 mi Calm Calm - N/A   Mostly Cloudy
11:35 PM 67.1 °F - 67.1 °F 100% 30.04 in 0.8 mi East 4.6 mph - N/A   Overcast
11:55 PM 67.1 °F - 67.1 °F 100% 30.03 in 0.8 mi Calm Calm - N/A   Overcast